Location: Most
(50.5133°N, 13.6207°E)
Time: 10:36:21
(UTC+01:00)

Oscar 11 - Pass Details

Date: 03 December 2022
Orbit: 611 x 621 km, 97.6° (Epoch: 28 January)

Event Time Altitude Azimuth Distance (km) Brightness Sun altitude
Rises 04:04:12 0° 22° (NNE) 2,891 10.8 -34.4°
Reaches altitude 10° 04:06:39 10° 34° (NE) 1,979 10.0 -34.0°
Enters shadow 04:08:18 19° 51° (NE) 1,464 9.4 -33.7°
